Location: Buisson
(44.2787°N, 4.9969°E)
Time: 00:57:46
(UTC+00:00)

Cosmos 2369 Rocket - Pass Details

Date: 18 April 2021
Orbit: 828 x 853 km, 71.0° (Epoch: 07 May)

Event Time Altitude Azimuth Distance (km) Brightness Sun altitude
Exits shadow 02:36:10 - 156° (SSE) 2,990 4.9 -21.9°
Reaches altitude 10° 02:38:05 10° 145° (SE) 2,427 4.5 -21.6°
Maximum altitude 02:41:59 20° 100° (E) 1,838 4.4 -21.1°
Drops below altitude 10° 02:45:55 10° 55° (NE) 2,445 5.8 -20.6°
Sets 02:48:58 0° 39° (NE) 3,388 6.8 -20.1°
